Santa Rosa, CA

3:43 PM PDT on May 25, 2017 (GMT -0700)
Sonoma County

Weather History for KSTS - October, 2010

Change the Weather History Date:

Tuesday, October 12, 2010

  Actual Average Record
Temperature  
Mean Temperature 72 °F 62 °F  
Max Temperature 94 °F 78 °F 98 °F (2014)
Min Temperature 50 °F 46 °F 38 °F (2008)
Degree Days  
Heating Degree Days 0    
Month to date heating degree days 29  
Since 1 July heating degree days 114  
Cooling Degree Days 7    
Month to date cooling degree days 24  
Year to date cooling degree days 315  
Growing Degree Days 22 (Base 50)    
Moisture  
Dew Point 37 °F    
Average Humidity 38    
Maximum Humidity 66    
Minimum Humidity 9    
Precipitation  
Precipitation 0.00 in 0.05 in 0.96 in (2007)
Month to date precipitation T 0.40  
Year to date precipitation 29.43 22.93  
Since 1 July precipitation 0.14  
Sea Level Pressure  
Sea Level Pressure 29.98 in    
Wind  
Wind Speed 4 mph (WNW)    
Max Wind Speed 13 mph    
Max Gust Speed 14 mph    
Visibility 10 miles    
Events      
T = Trace of Precipitation, MM = Missing Value Source: NWS Daily Summary

Daily Weather History Graph

Daily Weather History Graph

Search for Another Location

Airport or City:

Trip Planner

Search our weather history database for the weather conditions in past years. The results will help you decide how hot, cold, wet, or windy it might be!

Date:

Astronomy

Oct. 12, 2010 Rise Set
Actual Time 7:17 AM PDT 6:37 PM PDT
Civil Twilight 6:50 AM PDT 7:03 PM PDT
Nautical Twilight 6:20 AM PDT 7:34 PM PDT
Astronomical Twilight 5:49 AM PDT 8:05 PM PDT
Moon 12:51 PM PDT (10/12) 10:23 PM PDT (10/12)
Length of Visible Light 12h 13m
Length of Day
11h 19m
Waxing Crescent, 29% of the Moon is Illuminated
Oct 12
Waxing Crescent
Oct 14
First Quarter
Oct 22
Full
Oct 30
Last Quarter
Nov 5
New

Hourly Weather History & Observations

Time (PDT) Temp. Dew Point Humidity Pressure Visibility Wind Dir Wind Speed Gust Speed Precip Events Conditions
12:53 AM 61.0 °F 43.0 °F 52% 29.95 in 10.0 mi NNW 4.6 mph - N/A   Clear
1:53 AM 57.0 °F 43.0 °F 59% 29.96 in 10.0 mi WNW 4.6 mph - N/A   Clear
2:53 AM 54.0 °F 42.1 °F 64% 29.96 in 10.0 mi NNW 9.2 mph - N/A   Clear
3:53 AM 55.9 °F 42.1 °F 60% 29.96 in 10.0 mi North 8.1 mph - N/A   Clear
4:53 AM 55.9 °F 41.0 °F 57% 29.96 in 10.0 mi NNW 9.2 mph - N/A   Clear
5:53 AM 54.0 °F 39.0 °F 57% 29.96 in 10.0 mi NNW 6.9 mph - N/A   Clear
6:53 AM 52.0 °F 37.9 °F 59% 29.98 in 10.0 mi NNW 6.9 mph - N/A   Clear
7:53 AM 51.1 °F 39.0 °F 63% 30.00 in 10.0 mi WNW 5.8 mph - N/A   Clear
8:53 AM 62.1 °F 41.0 °F 46% 30.01 in 10.0 mi NNW 3.5 mph - N/A   Clear
9:53 AM 70.0 °F 39.0 °F 32% 30.02 in 10.0 mi NW 3.5 mph - N/A   Clear
10:53 AM 78.1 °F 39.9 °F 25% 30.01 in 10.0 mi NW 5.8 mph - N/A   Clear
11:53 AM 84.9 °F 34.0 °F 16% 30.01 in 10.0 mi Calm Calm - N/A   Clear
12:53 PM 90.0 °F 35.1 °F 14% 30.00 in 10.0 mi Calm Calm - N/A   Clear
1:53 PM 91.9 °F 33.1 °F 12% 29.97 in 10.0 mi Calm Calm - N/A   Partly Cloudy
2:53 PM 93.0 °F 28.0 °F 10% 29.96 in 10.0 mi SW 4.6 mph - N/A   Clear
3:53 PM 93.0 °F 27.0 °F 9% 29.95 in 10.0 mi SW 4.6 mph - N/A   Clear
4:53 PM 93.0 °F 33.1 °F 12% 29.94 in 10.0 mi SW 10.4 mph - N/A   Clear
5:53 PM 87.1 °F 30.0 °F 13% 29.94 in 10.0 mi SW 4.6 mph - N/A   Clear
6:53 PM 75.0 °F 37.9 °F 26% 29.96 in 10.0 mi SE 4.6 mph - N/A   Clear
7:53 PM 70.0 °F 37.0 °F 30% 29.98 in 10.0 mi SSE 3.5 mph - N/A   Clear
8:53 PM 63.0 °F 36.0 °F 37% 29.99 in 10.0 mi Calm Calm - N/A   Clear
9:53 PM 60.1 °F 37.9 °F 44% 30.00 in 10.0 mi Calm Calm - N/A   Clear
10:53 PM 59.0 °F 39.9 °F 49% 30.00 in 10.0 mi WNW 3.5 mph - N/A   Clear
11:53 PM 55.9 °F 39.9 °F 55% 30.01 in 10.0 mi Calm Calm - N/A   Clear